Location: Praha
(50.0830°N, 14.4670°E)
Time: 17:36:16
(UTC+02:00)

ISS - Pass Details

Date: 22 May 2020
Orbit: 417 x 420 km, 51.6° (Epoch: 26 May)

Event Time Altitude Azimuth Distance (km) Brightness Sun altitude
Rises 23:06:12 0° 280° (W) 2,367 0.6 -15.0°
Reaches altitude 10° 23:08:18 10° 283° (WNW) 1,502 -0.4 -15.2°
Maximum altitude 23:11:40 70° 8° (N) 451 -3.5 -15.4°
Enters shadow 23:14:23 15° 91° (E) 1,240 -1.6 -15.6°
